Location: Demmingen
(48.6757°N, 10.4375°E)
Time: 09:46:27
(UTC+00:00)

CZ-2C R/B - Pass Details

Date: 07 August 2024
Orbit: 703 x 903 km, 98.2° (Epoch: 16 September)

Event Time Altitude Azimuth Distance (km) Brightness Sun altitude
Rises 00:52:36 0° 19° (NNE) 3,151 7.7 -22.1°
Reaches altitude 10° 00:54:56 10° 25° (NNE) 2,246 6.6 -21.9°
Maximum altitude 00:59:40 45° 99° (E) 1,021 3.7 -21.6°
Enters shadow 01:01:39 31° 151° (SSE) 1,335 3.9 -21.5°
